Regional Weather Roundup
Issued by NWS

Home | Current Version | Previous Version | Graphics & Text | Print | Product List | Glossary On
Versions: 1 2 3 4 5 6 7 8 9 10 11 12 13 14 15 16 17 18 19 20 21 22 23 24 25 26 27 28
000
ASUS45 KTFX 101810
RWRMT
MONTANA REGIONAL WEATHER ROUNDUP
NATIONAL WEATHER SERVICE GREAT FALLS MT
1100 AM MST SAT DEC 10 2016

NOTE: "FAIR" INDICATES FEW OR NO CLOUDS BELOW 12000 FEET WITH NO
SIGNIFICANT WEATHER AND/OR OBSTRUCTIONS TO VISIBILITY.

MTZ001>007-043-101900-
WEST OF THE DIVIDE

CITY           SKY/WX    TMP DP  RH WIND       PRES   REMARKS
KALISPELL      MOSUNNY    9   5  84 SW3       29.80R FOG
MISSOULA       PTSUNNY   18  16  92 W5        29.78R
BUTTE          FLURRIES  26  22  84 VRB3      29.63F
MULLAN PASS    SNOW      16  15  96 VRB3      29.65R VSB<1/4
ANACONDA         N/A     36  25  64 S8        29.63R WCI  29
DEER LODGE       N/A     19  16  86 CALM      29.66R
EUREKA           N/A     10   3  72 CALM      29.88R
HAMILTON         N/A     19  14  79 CALM      29.74R
LIBBY            N/A     16   9  73 CALM      29.83R
PLAINS           N/A     17  10  74 CALM      29.85R
RONAN            N/A     14   9  81 CALM      29.83S
THOMPSON FALLS   N/A     18  14  84 CALM      29.90R
$$

MTZ008-052>055-101900-
SOUTHWEST MONTANA

CITY           SKY/WX    TMP DP  RH WIND       PRES   REMARKS
BOZEMAN        CLOUDY    16  10  77 CALM      29.69R
DILLON         CLOUDY    29  22  75 SE12      29.63F WCI  19
W YELLOWSTONE  CLOUDY    28  27  93 SW12G25   29.71F WCI  18
ENNIS          SUNNY     37  27  65 S17       29.68S WCI  28
THREE FORKS      N/A     17 -13  25 CALM      29.70F
TWIN BRIDGES     N/A     23  16  75 SE5       29.68F
$$

MTZ009-010-012-014-046-048-049-054-101900-
EAST SLOPES AND CENTRAL MONTANA

CITY           SKY/WX    TMP DP  RH WIND       PRES   REMARKS
CUT BANK       HVY SNOW   2  -2  83 E6        29.69F VSB 1/4 WCI  -9
GREAT FALLS    CLOUDY     5   1  83 CALM      29.69F
MALMSTROM AFB  FLURRIES   5   3  92 SW2       29.72F
HELENA         CLOUDY    13   4  67 CALM      29.69F
AUGUSTA        FLURRIES   1  -2  88 S5        29.63F
BOWMANS CRNR   LGT SNOW   0  -3  87 NE1       29.61F
CHOTEAU          N/A      5   0  78 MISG      29.70F
CONRAD           N/A      4   2  91 NE2       29.76S
FAIRFIELD      FLURRIES   4   0  83 SE2       29.67F
POWER          SNOWSHWR   4   1  87 E2        29.69S
RAYNESFORD     SNOWSHWR  10   5  79 E6        29.65F WCI   0
ULM            FLURRIES   2  -1  85 MISG      29.71S
$$

MTZ011-013-016-021-045-047-050-051-101900-
NORTH CENTRAL MONTANA

CITY           SKY/WX    TMP DP  RH WIND       PRES   REMARKS
HAVRE          LGT SNOW   6   1  80 E14       29.82F WCI -11
LEWISTOWN      LGT SNOW  12   7  80 N7        29.63F WCI   1
N BAR RANCH    PTSUNNY   28  23  80 SE9       29.65F WCI  20
CHINOOK          N/A      3   0  85 E12       29.86F WCI -13
DENTON         FLURRIES   7   4  88 MISG      29.66F
FORT BENTON      N/A      9   1  72 N6        29.78F VSB 1   WCI  -1
GEYSER         FLURRIES   7   3  84 E2        29.65F
GRASS RANGE    FLURRIES   9   6  85 E2        29.66F
JUDITH GAP     LGT SNOW  18  15  88 S16       29.63F WCI   3
ROY            FLURRIES   7   4  90 MISG      29.70F
STANFORD       PTSUNNY    8   6  89 N2        29.62F
WINIFRED       FLURRIES   6   3  91 MISG      29.68F
$$

MTZ017>020-022>027-061-062-101900-
NORTHEAST MONTANA

CITY           SKY/WX    TMP DP  RH WIND       PRES   REMARKS
GLASGOW        CLOUDY     0  -6  76 E17G26    29.94F WCI -21
JORDAN           N/A      8   3  80 E13       29.86F WCI  -8
SIDNEY         FLURRIES   3  -4  72 E13       30.08F WCI -14
WOLF POINT     LGT SNOW   2  -6  69 E15       30.05F WCI -17
PLENTYWOOD       N/A     -4  -8  84 E12       30.07F WCI -22
SCOBEY           N/A     -1 -13  56 E15       29.98F WCI -21
$$

MTZ028>42-056>058-101900-
SOUTHCENTRAL AND SOUTHEAST MONTANA

CITY           SKY/WX    TMP DP  RH WIND       PRES   REMARKS
BAKER          CLOUDY     2  -4  76 SE25      29.90F WCI -22
BILLINGS       CLOUDY    13   9  84 SW5       29.72F
LIVINGSTON     CLOUDY    14   9  80 SW3       29.65F
MILES CITY     CLOUDY    10   1  67 SE14      29.89F WCI  -6
BIG TIMBER     SUNNY     10   7  85 CALM      29.68F FOG
EKALAKA          N/A      3  -5  69 E13       29.81F WCI -14
FORSYTH          N/A     12   5  73 E10       29.82F WCI  -1
HARLOWTON      SNOWSHWR  11   7  85 W5        29.66F
LAUREL           N/A     12  -3  51 CALM      29.72F
$$

REGIONAL REPORTS...DAKOTAS

CITY           SKY/WX    TMP DP  RH WIND       PRES   REMARKS
WILLISTON      LGT SNOW  -1  -7  75 E9        30.14F WCI -16
MINOT          CLOUDY   -11 -16  78 E5        30.24F
DICKINSON      CLOUDY    -2  -7  79 SE17      30.01F WCI -23
BEACH          CLOUDY     1   0  92 SE23G29   29.97F WCI -21
CROSBY         LGT SNOW  -8 N/A N/A E7        30.18F WCI -22
TIOGA          PTSUNNY   -4  -6  92 SE12      30.13F FOG     WCI -22
WATFORD CITY   PTSUNNY   -2  -8  78 E15       30.10F HAZE    WCI -22
BISMARCK       CLOUDY   -11 -14  86 E9        30.25F WCI -29
GRAND FORKS    MOSUNNY   -3  -9  75 E5        30.42F
FARGO          CLOUDY     0  -8  69 E7        30.40F WCI -13
BUFFALO SD       N/A      3  -3  76 SE18      29.86F WCI -17
RAPID CITY     CLOUDY     5   1  83 SE10      29.89F WCI -10
$$

REGIONAL REPORTS...WYOMING/IDAHO/WASHINGTON

CITY           SKY/WX    TMP DP  RH WIND       PRES   REMARKS
GILLETTE       CLOUDY    11   7  84 CALM      29.74F
SHERIDAN       CLOUDY    15   7  70 NE3       29.73F
BUFFALO WY     CLOUDY    20  13  74 W3        29.70F
CODY           CLOUDY    19  11  70 SW3       29.68F
YELLOWSTONE LA   N/A     28  25  88 VRB7      29.72F WCI  21
IDAHO FALLS    LGT RAIN  34  32  92 SW18      29.82R WCI  23
SALMON         CLOUDY    19  18  93 CALM      29.75F
BOISE          FOG       34  33  96 CALM      29.88R VSB 1/2
SPOKANE        CLOUDY    20  17  88 SW8       29.88R WCI  10
$$

REGIONAL REPORTS...ALBERTA

CITY           SKY/WX    TMP DP  RH WIND       PRES   REMARKS
EDMONTON       CLOUDY   -13 -20  70 NE2       29.98F
CALGARY        CRYSTALS  -4  -9  77 S6        29.77R WCI -16
LETHBRIDGE     LGT SNOW   0  -4  85 N7        29.79F VSB 1   WCI -13
MEDICINE HAT   FLURRIES   3   0  85 N5        29.87F
WATERTON GATE    N/A     -2  -8  78 NE3         N/A
CARDSTON         N/A     -2  -9  71 NW5         N/A
MILK RIVER       N/A      5   1  85 E6          N/A  WCI  -6
ONEFOUR          N/A      1  -2  85 E13         N/A  WCI -16
$$

REGIONAL REPORTS...SASKATCHEWAN

CITY           SKY/WX    TMP DP  RH WIND       PRES   REMARKS
SWIFT CURRENT  FLURRIES  -2  -6  84 SE16      29.89F WCI -23
REGINA         MOSUNNY   -9 -15  77 SE12      30.15F WCI -29
SASKATOON      MOSUNNY   -2  -8  78 SE7       30.15F WCI -16
CYPRESS HILLS    N/A     -2  -6  84 SE8         N/A  WCI -17
VAL MARIE        N/A      3   0  85 SE10        N/A  WCI -12
ASSINIBOIA       N/A     -9 -17  70 E2          N/A
$$




USA.gov is the U.S. government's official web portal to all federal, state and local government web resources and services.